PulseSat

PulseSat

GSAT0212 (GALILEO 16)

Last updated on Feb. 17, 2019, 3:05 a.m. UTC

1 41860U 16069B   19045.67075906  .00000027  00000-0  00000-0 0  9999
2 41860  54.5929 175.4263 0002541 325.9238  34.0201  1.70473670 13972
UTC
Height (km)
Latitude
Longitude
Inclination
Orbital Period

Next 30 passes for location: Hong Kong

Rise time Rise Azimuth (degrees) Set time Set Azimuth (degrees) Duration Max altitude (degrees)

No matching passes for this satellites

PulseSat

PulseSat is the new satellites software and hardware trackering solution by Pulsely.
Satellite Two Line Element Set source: US Air Force Space Command

Download PulseSat for iOS
© 2017 Pulsely Limited